Location: Brookfield Center
(41.2406°N, 80.5579°W)
Time: 05:24:35
(UTC+00:00)

Cosmos 1626 Rocket - Pass Details

Date: 18 January 2020
Orbit: 603 x 631 km, 82.5° (Epoch: 24 February)

Event Time Altitude Azimuth Distance (km) Brightness Sun altitude
Exits shadow 10:38:36 81° 255° (WSW) 620 3.3 -23.3°
Drops below altitude 10° 10:42:54 10° 177° (S) 1,957 6.2 -22.5°
Sets 10:45:06 0° 176° (S) 2,861 7.1 -22.1°
